Location: Escarmain
(50.2287°N, 3.5448°E)
Time: 18:37:26
(UTC+00:00)

Daily predictions for brighter satellites

Satellite Brightness Start Highest point End
(mag) Time Altitude Azimuth Time Altitude Azimuth Time Altitude Azimuth
COSMOS 2406 4.3 16:24:33 10° NNW 16:29:02 23° NE 16:33:32 10° E
Cosmos 1833 Rocket 3.0 16:23:46 10° NNW 16:29:26 77° WSW 16:35:04 10° SSE
Cosmos 407 Rocket 4.4 16:26:20 10° SSE 16:30:46 30° E 16:35:11 10° NE
Cosmos 1484 Rocket 2.6 16:28:39 10° SSE 16:32:10 87° WSW 16:35:43 10° NNW
Cosmos 2016 Rocket 4.1 16:25:53 10° S 16:32:10 76° E 16:38:33 10° NNE
Cosmos 1812 4.1 16:32:17 10° E 16:32:58 11° E 16:33:39 10° ENE
CBERS-1 4.1 16:29:28 10° SSE 16:34:35 87° ENE 16:39:45 10° NNW
Tsikada Rocket 4.1 16:28:30 10° N 16:34:56 71° ENE 16:41:16 10° SSE
Cosmos 1606 4.0 16:33:23 10° SW 16:35:42 26° WNW 16:38:01 10° NNW
Cosmos 2084 Rocket 3.5 16:35:10 10° SW 16:39:21 78° NW 16:43:34 10° NE
SMAP 3.1 16:37:50 10° SSE 16:42:23 57° ENE 16:46:58 10° N
Cosmos 44 Rocket 4.4 16:39:26 10° S 16:43:25 27° ESE 16:47:32 10° ENE
Cosmos 540 Rocket 3.6 16:38:58 10° NNW 16:43:59 52° ENE 16:48:59 10° SE
SJ 16-02 3.1 16:44:06 10° ESE 16:46:05 13° E 16:47:54 10° ENE
SPOT 1/Viking Rocket 4.4 16:43:03 10° ESE 16:47:20 27° ENE 16:51:39 10° N
Cosmos 1869 3.8 16:44:43 10° SSE 16:47:49 30° E 16:50:55 10° NNE
YAOGAN 1 4.0 16:46:25 10° E 16:49:13 17° ENE 16:52:01 10° NNE
IGS 5A 3.4 16:45:31 10° SSE 16:49:29 86° WSW 16:53:29 10° NNW
Cosmos 1763 Rocket 3.4 16:47:15 10° NNW 16:52:30 70° ENE 16:57:37 10° SSE
SL-16 R/B 2.7 16:46:22 10° NNE 16:52:40 86° WNW 16:58:55 10° SSW
Landsat 7 3.9 16:50:02 10° SSE 16:54:33 54° ENE 16:59:06 10° N
SAR-Lupe-5 4.2 16:52:05 10° NNE 16:54:42 87° WNW 16:57:22 10° SSW
Timation 1 Rocket 4.3 16:52:07 10° NNW 16:58:07 75° ENE 17:04:05 10° SE
RESURS DK-1 2.2 16:54:10 10° NNW 16:58:12 77° ENE 17:02:11 10° SE
Cosmos 1140 Rocket 3.5 16:54:26 10° SSW 16:59:37 90° W 17:04:48 10° NNE
Aureole 3 Rocket 3.3 16:58:20 10° SSE 17:00:53 24° E 17:03:37 10° NNE
CZ-4C R/B 3.3 16:56:41 10° W 17:01:02 32° NNW 17:06:30 10° NE
UNK 3.7 17:01:01 10° NNE 17:05:40 74° ESE 17:10:16 10° S
Meteor 1-28 Rocket 3.5 17:02:29 10° N 17:05:49 58° WNW 17:09:07 10° SSW
SJ-6F 4.5 17:02:41 10° SE 17:06:27 48° ENE 17:10:15 10° N
Meteor 2-12 Rocket 4.4 17:02:49 10° N 17:08:57 74° ENE 17:15:00 10° SSE
Cosmos 1400 Rocket 4.0 17:07:34 10° SE 17:10:19 19° E 17:11:08 18° ENE
SJ-12 3.6 17:07:07 10° SSE 17:10:53 74° ENE 17:14:42 10° N
Cosmos 1536 Rocket 4.2 17:07:32 10° N 17:11:35 33° ENE 17:15:35 10° SE
SAR-Lupe-3 4.0 17:13:47 17° NNE 17:15:31 44° ESE 17:18:03 10° S
Helios 1A Rocket 4.4 17:16:48 14° ESE 17:16:48 14° ESE 17:17:45 10° SE
Okean 2 Rocket 4.1 17:14:09 10° SE 17:17:42 25° E 17:20:03 16° NE
IRS-1C 4.2 17:16:42 10° SSE 17:22:02 81° WSW 17:27:23 10° NNW
ATLAS CENTAUR R/B 3.4 17:23:20 10° WNW 17:25:13 14° NNW 17:27:04 10° N
SL-12 R/B(2) 4.4 17:18:29 10° SSW 17:26:26 73° SE 17:35:47 12° NE
COSMO-SKYMED 1 3.5 17:26:49 24° ENE 17:27:34 25° E 17:31:00 10° SSE
Resurs 01 Rocket 3.3 17:30:11 17° NE 17:30:11 17° NE 17:32:01 10° NNE
Cosmos 1943 Rocket 2.1 17:24:29 10° SSW 17:30:05 74° ESE 17:35:17 12° NNE
Timation 2 Rocket 4.2 17:24:33 10° SSW 17:31:26 79° ESE 17:38:18 10° NNE
Cosmos 841 Rocket 3.7 17:28:07 10° NNW 17:33:12 46° ENE 17:38:15 10° SE
Cosmos 2058 2.7 17:29:40 10° N 17:33:40 70° E 17:37:37 10° SSE
Cosmos 2251 Rocket 3.6 17:29:01 10° S 17:34:09 55° ESE 17:38:36 14° NNE
SJ-7 4.5 17:33:01 10° SE 17:36:29 41° ENE 17:40:00 10° N
BREEZE-M DEB (TANK) 2.5 17:34:45 10° WSW 17:37:17 58° SSE 17:39:49 25° E
Cosmos 2082 Rocket 2.1 17:32:45 10° NNW 17:38:25 88° ENE 17:44:02 10° SSE
ATLAS 2AS CENTAUR R/B 3.2 17:32:31 10° NW 17:38:53 39° NNE 17:42:14 24° E
Cosmos 1346 Rocket 4.1 17:36:55 10° N 17:38:39 21° NNE 17:38:39 21° NNE
Cosmos 2278 Rocket 2.1 17:37:54 10° SSW 17:43:34 87° ESE 17:48:32 14° NNE
IRAS Rocket 4.2 17:38:09 10° SSE 17:43:37 63° ENE 17:49:04 10° NNW
Cosmos 1602 3.2 17:41:52 10° NNW 17:44:56 75° W 17:47:59 10° S
MOS 1 Rocket 3.2 17:41:24 10° SSE 17:45:45 83° WSW 17:50:19 10° NNW
Cosmos 468 Rocket 4.1 17:42:22 10° NNW 17:47:36 78° WSW 17:52:44 10° SSE
Cosmos 1464 Rocket 3.9 17:44:01 10° S 17:50:14 66° E 17:56:24 10° NNE
ARIANE 5 R/B 3.6 17:46:03 10° S 17:50:49 45° W 17:55:38 10° NNW
CZ-2D R/B 3.3 17:47:22 10° SSE 17:51:31 79° ENE 17:55:45 10° NNW
Cosmos 2369 Rocket 4.2 17:49:52 10° SE 17:50:08 11° SE 17:50:08 11° SE
USA 215 4.1 17:48:54 10° SSE 17:55:10 48° SW 18:01:29 10° WNW
Cosmos 1862 2.9 17:52:26 10° N 17:56:05 89° W 17:59:43 10° S
PSLV R/B 3.3 17:53:20 10° SSE 17:57:19 65° ENE 18:01:20 10° N
Cosmos 2151 Rocket 3.5 17:56:18 10° S 18:00:47 80° E 18:05:04 11° NNE
Cosmos 1190 Rocket 3.9 17:56:38 10° SSW 18:01:56 78° ESE 18:05:26 22° NNE
ISS -3.9 18:00:30 10° WSW 18:03:51 89° N 18:03:51 89° N
Cosmos 2034 Rocket 4.0 17:58:09 10° S 18:04:11 57° E 18:10:20 10° NNE
Cosmos 1812 3.3 18:02:18 10° SSW 18:05:03 39° WNW 18:06:21 24° NNW
Cosmos 676 Rocket 4.1 17:59:56 10° S 18:05:04 53° ESE 18:06:42 38° NE
SKYMED 2 3.4 18:03:51 17° NNE 18:07:16 86° ESE 18:11:37 10° SSW
Okean 1 Rocket 3.0 18:03:08 10° S 18:07:28 61° E 18:08:25 48° NE
Cosmos 1656 Rocket 4.0 18:02:35 10° S 18:07:43 40° ESE 18:08:00 40° E
Cosmos 220 Rocket 4.2 18:07:52 10° NNW 18:11:16 48° NNE 18:11:16 48° NNE
Cosmos 407 Rocket 4.4 18:07:30 10° SW 18:12:28 46° WNW 18:17:08 12° NNE
USA 281 3.5 18:11:29 37° E 18:13:06 43° NE 18:19:15 10° NNW
Sich 1 Rocket 3.5 18:08:42 10° S 18:13:13 71° E 18:14:56 37° NNE
COSMOS 2406 3.1 18:08:22 10° NNW 18:14:06 89° SW 18:19:01 14° SSE
Cosmos 1954 Rocket 3.9 18:09:05 10° SSW 18:14:21 81° ESE 18:16:53 32° NNE
Cosmos 1092 Rocket 3.9 18:09:54 10° N 18:16:05 59° ENE 18:22:11 10° SSE
BlueWalker 3 4.2 18:14:57 10° S 18:15:40 13° S 18:15:40 13° S
SL-19 R/B 4.1 18:13:39 10° SSE 18:18:51 81° WSW 18:24:08 10° NNW
Cosmos 2026 Rocket 3.8 18:15:02 10° N 18:21:08 70° ENE 18:27:15 10° SSE
SJ 16-02 1.3 18:19:15 10° SSW 18:23:34 78° WNW 18:24:29 54° N
Cosmos 44 Rocket 3.7 18:19:46 10° SW 18:24:31 58° NW 18:26:13 37° NNE
YAOGAN 1 2.8 18:20:23 10° S 18:24:37 65° W 18:28:52 10° NNW
SPOT 1/Viking Rocket 4.3 18:21:21 10° S 18:26:24 53° W 18:31:30 10° NNW
Cosmos 2344 3.8 18:24:13 10° NW 18:32:04 85° NE 18:38:34 26° SE
Cosmos 2297 Rocket 4.3 18:31:32 10° N 18:33:09 13° NNE 18:33:09 13° NNE
Meteor 2-3 Rocket 3.7 18:31:20 10° NNW 18:37:04 82° W 18:42:41 10° S
Resurs 1-3 4.4 18:34:59 10° S 18:39:10 50° W 18:43:22 10° NNW
Cosmos 1400 Rocket 4.0 18:41:57 10° SW 18:45:32 38° WNW 18:45:48 38° WNW
Cosmos 304 Rocket 4.0 18:43:45 10° SW 18:48:26 63° WNW 18:48:47 61° NW
Cosmos 371 Rocket 3.6 18:45:31 10° SW 18:50:17 64° WNW 18:50:35 62° NW
CZ-4C R/B 3.9 18:46:33 10° NW 18:51:06 24° N 18:51:49 24° NNE
Okean 2 Rocket 4.4 18:51:21 10° SW 18:55:28 39° WNW 18:57:21 26° NNW
COSMO-SKYMED 1 3.8 19:03:10 37° WNW 19:03:10 37° WNW 19:06:48 10° SW
Resurs 01 Rocket 3.6 19:07:36 23° NNW 19:07:36 23° NNW 19:09:18 10° NNW
BREEZE-M DEB (TANK) 3.9 19:08:41 10° W 19:11:47 71° WSW 19:11:47 71° WSW
Cosmos 1943 Rocket 4.0 19:09:42 10° W 19:14:22 26° NW 19:16:48 20° N
Cosmos 2278 Rocket 4.1 19:23:52 10° W 19:28:23 24° NW 19:30:23 20° N
ATLAS 2AS CENTAUR R/B 2.8 19:23:33 10° NW 19:29:41 70° W 19:29:41 70° W
Cosmos 2369 Rocket 4.3 19:31:00 10° SSW 19:31:59 16° SSW 19:31:59 16° SSW
USA 281 3.9 19:58:21 48° W 19:58:21 48° W 20:03:56 10° NW
SJ 16-02 4.4 20:00:22 10° WNW 20:01:03 12° WNW 20:01:03 12° WNW
